Hof Plauen, Germany

11:46 AM CET on January 19, 2018 (GMT +0100)
Hof-Plauen

Weather History for EDQM - July, 2013

Change the Weather History Date:

Tuesday, July 23, 2013

  Actual Average Record
Temperature  
Mean Temperature 70 °F -  
Max Temperature 84 °F 68 °F 84 °F (2013)
Min Temperature 56 °F 52 °F 42 °F (2012)
Cooling Degree Days 5    
Growing Degree Days 20 (Base 50)    
Moisture  
Dew Point 47 °F    
Average Humidity 43    
Maximum Humidity 77    
Minimum Humidity 15    
Precipitation  
Precipitation 0.00 in - - ()
Sea Level Pressure  
Sea Level Pressure 30.00 in    
Wind  
Wind Speed 3 mph ()    
Max Wind Speed 8 mph    
Max Gust Speed -    
Visibility 9.0 miles    
Events      
Averages and records for this station are not official NWS values.
T = Trace of Precipitation, MM = Missing Value Source: Averaged Metar Reports

Daily Weather History Graph

Daily Weather History Graph

Search for Another Location

Airport or City:

Trip Planner

Search our weather history database for the weather conditions in past years. The results will help you decide how hot, cold, wet, or windy it might be!

Date:

Astronomy

Jul. 23, 2013 Rise Set
Actual Time 5:28 AM CEST 9:08 PM CEST
Civil Twilight 4:47 AM CEST 9:49 PM CEST
Nautical Twilight 3:51 AM CEST 10:44 PM CEST
Astronomical Twilight 2:27 AM CEST 12:06 AM CEST
Moon 9:09 PM CEST (7/23) 6:28 AM CEST (7/23)
Length of Visible Light 17h 02m
Length of Day
15h 40m
Full, 99% of the Moon is Illuminated
Jul 23
Full
Jul 29
Last Quarter
Aug 6
New
Aug 14
First Quarter
Aug 21
Full

Hourly Weather History & Observations

Time (CEST) Temp. Dew Point Humidity Pressure Visibility Wind Dir Wind Speed Gust Speed Precip Events Conditions
12:20 AM 62.6 °F 50.0 °F 63% 30.06 in 6.2 mi Variable 2.3 mph - N/A   Partly Cloudy
12:50 AM 60.8 °F 50.0 °F 68% 30.06 in 6.2 mi NW 1.2 mph - N/A   Partly Cloudy
1:00 AM 65 °F 50 °F 49% 29.99 in 18 mi West 2.2 mph - -  
1:20 AM 60.8 °F 50.0 °F 68% 30.04 in 6.2 mi North 2.3 mph - N/A   Partly Cloudy
1:50 AM 62.6 °F 48.2 °F 59% 30.04 in 6.2 mi North 4.6 mph - N/A   Unknown
2:00 AM 64 °F 51 °F 53% 29.99 in 18 mi NNW 2.2 mph - -  
2:20 AM 59.0 °F 50.0 °F 72% 30.04 in 6.2 mi NNW 3.5 mph - N/A   Scattered Clouds
2:50 AM 59.0 °F 50.0 °F 72% 30.04 in 6.2 mi Calm Calm - N/A   Scattered Clouds
3:00 AM 62 °F 50 °F 56% 29.99 in 17 mi West 2.2 mph - -  
3:20 AM 57.2 °F 48.2 °F 72% 30.04 in 6.2 mi Calm Calm - N/A   Partly Cloudy
3:50 AM 57.2 °F 48.2 °F 72% 30.04 in 6.2 mi Variable 1.2 mph - N/A   Unknown
4:00 AM 60 °F 51 °F 63% 29.99 in 4 mi WSW 2.2 mph - -   Light Haze
4:20 AM 57.2 °F 48.2 °F 72% 30.04 in 6.2 mi SW 1.2 mph - N/A   Unknown
4:50 AM 55.4 °F 48.2 °F 77% 30.04 in 6.2 mi WSW 2.3 mph - N/A   Unknown
5:20 AM 57.2 °F 50.0 °F 77% 30.04 in 6.2 mi Calm Calm - N/A   Unknown
5:50 AM 55.4 °F 48.2 °F 77% 30.04 in 6.2 mi Variable 2.3 mph - N/A   Unknown
6:00 AM 56 °F 51 °F 77% 29.99 in 16 mi NE 2.2 mph - -   Clear
6:20 AM 55.4 °F 48.2 °F 77% 30.01 in 6.2 mi Calm Calm - N/A   Unknown
6:50 AM 60.8 °F 50.0 °F 68% 30.04 in - Variable 2.3 mph - N/A   Clear
7:00 AM 61 °F 52 °F 64% 29.97 in 16 mi East 2.2 mph - -   Clear
7:20 AM 64.4 °F 53.6 °F 68% 30.04 in - Calm Calm - N/A   Clear
7:50 AM 69.8 °F 53.6 °F 56% 30.04 in - Calm Calm - N/A   Clear
8:00 AM 67 °F 54 °F 54% 29.95 in 16 mi North 2.2 mph - -   Clear
8:20 AM 71.6 °F 55.4 °F 57% 30.04 in - Variable 1.2 mph - N/A   Clear
8:50 AM 73.4 °F 50.0 °F 44% 30.04 in - East 3.5 mph - N/A   Clear
9:00 AM 73 °F 50 °F 33% 29.94 in 16 mi North 2.2 mph - -   Clear
9:20 AM 75.2 °F 51.8 °F 44% 30.04 in - ENE 4.6 mph - N/A   Clear
9:50 AM 77.0 °F 46.4 °F 34% 30.04 in - ENE 4.6 mph - N/A   Clear
10:00 AM 77 °F 46 °F 23% 29.92 in 19 mi ENE 4.5 mph - -   Clear
10:20 AM 78.8 °F 44.6 °F 30% 30.04 in - ENE 5.8 mph - N/A   Clear
10:50 AM 78.8 °F 42.8 °F 28% 30.04 in - East 8.1 mph - N/A   Clear
11:20 AM 80.6 °F 41.0 °F 24% 30.04 in - NE 5.8 mph - N/A   Clear
11:50 AM 80.6 °F 39.2 °F 23% 30.04 in - NE 5.8 mph - N/A   Clear
12:00 PM 80 °F 41 °F 15% 29.91 in 25 mi ENE 6.7 mph - -   Clear
12:20 PM 82.4 °F 41.0 °F 23% 30.04 in - Variable 5.8 mph - N/A   Clear
12:50 PM 80.6 °F 41.0 °F 24% 30.04 in - NNW 5.8 mph - N/A   Clear
1:00 PM 81 °F 44 °F 17% 29.91 in 31 mi ENE 4.5 mph - -   Scattered Clouds
1:20 PM 84.2 °F 44.6 °F 25% 30.04 in - Variable 3.5 mph - N/A   Clear
1:50 PM 84.2 °F 46.4 °F 27% 30.04 in - Variable 4.6 mph - N/A   Clear
2:00 PM 82 °F 46 °F 18% 29.90 in 31 mi North 6.7 mph - -   Scattered Clouds
2:20 PM 80.6 °F 42.8 °F 26% 30.04 in - North 6.9 mph - N/A   Clear
2:50 PM 82.4 °F 44.6 °F 26% 30.01 in - Variable 6.9 mph - N/A   Clear
3:00 PM 83 °F 45 °F 17% 29.88 in 37 mi NNW 4.5 mph - -   Scattered Clouds
3:20 PM 84.2 °F 44.6 °F 25% 30.01 in - Variable 2.3 mph - N/A   Clear
3:50 PM 84.2 °F 42.8 °F 23% 30.01 in - Variable 4.6 mph - N/A   Clear
4:00 PM 84 °F 45 °F 16% 29.87 in 37 mi NNE 6.7 mph - -   Scattered Clouds
4:20 PM 84.2 °F 44.6 °F 25% 30.01 in - North 5.8 mph - N/A   Clear
4:50 PM 84.2 °F 42.8 °F 23% 30.01 in - NNW 5.8 mph - N/A   Clear
5:20 PM 84.2 °F 42.8 °F 23% 29.98 in - North 3.5 mph - N/A   Clear
5:50 PM 82.4 °F 44.6 °F 26% 29.98 in - North 5.8 mph - N/A   Clear
6:00 PM 83 °F 45 °F 17% 29.86 in 37 mi North 4.5 mph - -   Scattered Clouds
6:20 PM 78.8 °F 44.6 °F 30% 29.98 in - North 3.5 mph - N/A   Clear
6:50 PM 78.8 °F 44.6 °F 30% 29.98 in - North 3.5 mph - N/A   Clear
7:00 PM 81 °F 44 °F 17% 29.86 in 37 mi NNE 4.5 mph - -   Scattered Clouds
7:20 PM 78.8 °F 44.6 °F 30% 29.98 in - North 3.5 mph - N/A   Clear
7:50 PM 77.0 °F 42.8 °F 29% 29.98 in - NNE 3.5 mph - N/A   Clear
8:00 PM 79 °F 44 °F 18% 29.86 in 44 mi NE 4.5 mph - -   Mostly Cloudy
8:20 PM 73.4 °F 48.2 °F 41% 29.98 in 6.2 mi West 3.5 mph - N/A   Unknown
8:50 PM 71.6 °F 50.0 °F 46% 30.01 in 6.2 mi Variable 2.3 mph - N/A   Partly Cloudy
9:20 PM 69.8 °F 46.4 °F 43% 30.01 in 6.2 mi NNE 3.5 mph - N/A   Scattered Clouds
9:50 PM 71.6 °F 44.6 °F 38% 30.01 in 6.2 mi NNE 3.5 mph - N/A   Unknown
10:00 PM 74 °F 46 °F 26% 29.91 in 31 mi ENE 4.5 mph - -  
10:20 PM 71.6 °F 44.6 °F 38% 30.01 in 6.2 mi NNE 3.5 mph - N/A   Unknown
10:50 PM 68.0 °F 46.4 °F 46% 30.01 in 6.2 mi North 4.6 mph - N/A   Mostly Cloudy
11:20 PM 66.2 °F 50.0 °F 56% 30.04 in 6.2 mi WSW 4.6 mph - N/A   Overcast
11:50 PM 68.0 °F 50.0 °F 52% 30.01 in 6.2 mi East 3.5 mph - N/A   Scattered Clouds